Regional Weather Roundup
Issued by NWS

Home | Current Version | Previous Version | Graphics & Text | Print | Product List | Glossary On
Versions: 1 2 3 4 5 6 7 8 9 10 11 12 13 14 15 16 17 18 19 20 21 22 23 24 25 26 27 28 29 30 31 32 33 34 35 36 37 38 39 40 41 42 43 44 45 46 47 48 49 50
000
ASUS43 KMKX 280900
RWRWI

WISCONSIN REGIONAL WEATHER ROUNDUP
NATIONAL WEATHER SERVICE MILWAUKEE/SULLIVAN WI
300 AM CST FRI NOV 28 2014

NOTE: "FAIR" INDICATES FEW OR NO CLOUDS BELOW 12,000 FEET WITH NO
SIGNIFICANT WEATHER AND/OR OBSTRUCTIONS TO VISIBILITY.

WIZ001-002-006>008-014>016-023>028-281000-
NORTHWEST WISCONSIN

CITY           SKY/WX    TMP DP  RH WIND       PRES   REMARKS
SUPERIOR ARPT  FLURRIES   8   1  70 SE3       30.22F
ASHLAND        CLOUDY     6   0  76 CALM      30.24F
HAYWARD        LGT SNOW   7  -1  70 S6        30.18F WCI  -3
SIREN          LGT SNOW   8   4  84 SE7       30.18F WCI  -3
CUMBERLAND     LGT SNOW   9   3  78 SE7       30.17F WCI  -3
RICE LAKE      LGT SNOW   8   4  84 SE8       30.21F VSB 1   WCI  -4
CHETEK         LGT SNOW   8   4  85 E6        30.21F VSB 1   WCI  -2
LADYSMITH      LGT SNOW   8   2  77 SE7       30.23F WCI  -4
EAU CLAIRE     LGT SNOW   9   4  80 SE8       30.22F VSB 1   WCI  -3
MENOMONIE      LGT SNOW  10   5  82 E10       30.23F VSB 3/4 WCI  -4
NEW RICHMOND   LGT SNOW   9   5  84 SE7       30.19F WCI  -2
OSCEOLA        LGT SNOW  10   6  86 SE8       30.21F WCI  -2
$$

WIZ003>005-009-010-017-018-281000-
NORTH CENTRAL WISCONSIN

CITY           SKY/WX    TMP DP  RH WIND       PRES   REMARKS
MANITOWISH WTR CLOUDY    -1  -4  85 CALM      30.19F
ARBOR VITAE    CLOUDY     3  -1  83 CALM      30.20F
WOODRUFF       CLOUDY     3  -1  83 CALM      30.20F
RHINELANDER    CLOUDY     1  -3  83 CALM      30.20F
EAGLE RIVER    CLOUDY     1  -4  80 CALM      30.20F
LAND O LAKES   CLOUDY    -2  -6  84 CALM      30.20F
PHILLIPS       MOCLDY     3  -2  81 SE5       30.21F WCI  -7
TOMAHAWK       PTCLDY     2  -2  85 CALM      30.23F
MEDFORD        CLOUDY     6  -1  75 SE6       30.22S WCI  -5
MERRILL        CLOUDY     3  -1  86 CALM      30.25S
$$

WIZ029-030-035-036-043>047-281000-
CENTRAL WISCONSIN

CITY           SKY/WX    TMP DP  RH WIND       PRES   REMARKS
WAUSAU         CLOUDY     5   2  87 SE3       30.24F
MOSINEE        CLOUDY     3   3 100 CALM      30.28S
MARSHFIELD     LGT SNOW   7   2  80 SE5       30.24F WCI  -2
STEVENS POINT  CLOUDY     3   0  88 CALM      30.30S
WAUPACA        CLOUDY     7   3  82 S3        30.33F
WAUTOMA        NOT AVBL
WISC RAPIDS    SNOW       7   1  76 SE3       30.29F
CAMP DOUGLAS   NOT AVBL
$$

WIZ011>013-019>022-031-037>040-048>050-281000-
NORTHEAST WISCONSIN

CITY           SKY/WX    TMP DP  RH WIND       PRES   REMARKS
ANTIGO         CLOUDY     1  -2  88 CALM      30.24S
SHAWANO        MOCLDY     7   3  84 CALM      30.33S
OCONTO         PTCLDY     5   2  90 W3        30.34S
STURGEON BAY   PTCLDY     9   3  78 CALM      30.32S
GREEN BAY      CLOUDY     7   3  84 SW3       30.34S
MANITOWOC      NOT AVBL
APPLETON       CLOUDY     9   3  78 SW6       30.33R WCI  -1
CLINTONVILLE   PTCLDY     3   0  85 CALM      30.33R
OSHKOSH        CLOUDY    10   2  69 MISG      30.33S
$$

WIZ032>034-041-042-053>061-281000-
SOUTHWEST WISCONSIN

CITY           SKY/WX    TMP DP  RH WIND       PRES   REMARKS
LA CROSSE      LGT SNOW  14   8  77 SE8       30.28F WCI   3
SPARTA         FLURRIES  12   4  70 SE3       30.29F
VIROQUA        CLOUDY    11   7  82 S5        30.25S WCI   3
BOSCOBEL       CLOUDY    15   7  70 CALM      30.32F
PRAIRIE DU CHI CLOUDY    15   7  70 SE3       30.30F
PLATTEVILLE    CLOUDY    14   8  76 CALM      30.29F
$$

WIZ056-057-062-063-064-067-068-281000-
SOUTH CENTRAL WISCONSIN

CITY           SKY/WX    TMP DP  RH WIND       PRES   REMARKS
REEDSBURG      CLOUDY    10   5  79 SE3       30.29F
BARABOO/DELLS  CLOUDY    11   4  73 S5        30.30F WCI   3
LONE ROCK      NOT AVBL
MINERAL POINT  FLURRIES  16   7  67 SE5       30.27F WCI   9
MADISON        CLOUDY    14   7  73 SE6       30.32F WCI   5
MIDDLETON      CLOUDY    16   8  71 S5        30.32F WCI   9
WATERTOWN      CLOUDY    11   8  87 CALM      30.34S
MONROE         CLOUDY    16  10  79 SE3       30.30F
JANESVILLE     CLOUDY    18  10  73 CALM      30.34F
$$

WIZ051-052-058>065-066-070>072-281000-
SOUTHEAST WISCONSIN

CITY           SKY/WX    TMP DP  RH WIND       PRES   REMARKS
MILWAUKEE      MOCLDY    15   7  70 W5        30.36R WCI   8
WAUKESHA       MOCLDY    12   9  85 SW3       30.35R
MILWAUKEE/TIMM MOCLDY    14   9  79 SW3       30.36S
RACINE         CLOUDY    14   8  77 W5        30.38R WCI   6
BURLINGTON     CLOUDY    11   8  88 CALM      30.35R
KENOSHA        CLOUDY    14  11  87 CALM      30.36S
FOND DU LAC    MOCLDY     9   5  84 S3        30.34S
SHEBOYGAN      MOCLDY    10   4  76 W3        30.35R
WEST BEND      CLOUDY    10   7  85 CALM      30.35R
JUNEAU         CLOUDY    10   7  87 S3        30.34S
$$

LSZ147-162-281000-
LAKE SUPERIOR

STATION/POSITION TIME  TEMP    WIND        PRES    WAVE
                       AIR SEA DIR/SP/G            HT/PER
                 (UTC) (F)     (DEG/KT/KT) (MB)    (FT/S)
DEVILS ISLAND    0800   12     210/ 12/ 14 1025.8F
PORT WING        0800    7     150/  2/  5 1024.4F
SAXON HARBOR     0800    6      CALM  /  5 1025.1F
$$

LMZ867-665-643>646-281000-
LAKE MICHIGAN

STATION/POSITION TIME  TEMP    WIND        PRES    WAVE
                       AIR SEA DIR/SP/G            HT/PER
                 (UTC) (F)     (DEG/KT/KT) (MB)    (FT/S)
CHAMBERS ISLAND  0800   12     270/  3/  4 1026.8S
N MID LAKE BUOY  0750   19 42  250/  8/ 10 1027.2F   1/ 3
NORTHPORT PIER   0814   13     250/  4/  7 1026.8R
SISTER BAY       0813          290/  7/  9   N/A
KEWAUNEE LAKESHO 0800    8     290/  4/  6 1026.1F
SHEBOYGAN LAKESH 0800   11 34  270/  6/  8 1029.2S
PORT WASHINGTON  0800   13     280/  5/  6 1028.4S
MILWAUKEE LAKESH 0800   15     300/  4/  4   N/A
S MID LAKE BUOY  0750   23 42  270/  4/  8 1028.7F   2/ 6
KENOSHA   LAKESH 0800   15     280/  6/  7 1028.1R
$$

TC  - TEMPERATURE IN CELSIUS
VSB - VISIBILITY IN STATUTE MILES
WCI - WIND CHILL INDEX
HX  - HEAT INDEX



USA.gov is the U.S. government's official web portal to all federal, state and local government web resources and services.